This is the latest recevied weather packets stored in our database for station/object KC1OEK-13. If no packets are shown the sender has not sent any weather packets the latest 10 day(s).
| Time | Temp. | Humidity | Pressure | Rain* | Wind** | Luminosity | Snow |
|---|---|---|---|---|---|---|---|
| 1787854573 | 26.67° C | 77% | 1018.9 hPa | 0 mm | - | 520 W/m² | - |
| 1787854267 | 26.67° C | 76% | 1018.8 hPa | 0 mm | - | 315 W/m² | - |
| 1787853963 | 27.22° C | 75% | 1018.8 hPa | 0 mm | - | 575 W/m² | - |
| 1787853662 | 25.56° C | 78% | 1018.8 hPa | 0 mm | - | 373 W/m² | - |
| 1787853356 | 25.56° C | 78% | 1018.8 hPa | 0 mm | - | 373 W/m² | - |
| 1787853050 | 25.56° C | 79% | 1018.6 hPa | 0 mm | - | 378 W/m² | - |
| 1787852745 | 25.56° C | 82% | 1018.6 hPa | 0 mm | - | 363 W/m² | - |
| 1787852444 | 25.56° C | 81% | 1018.8 hPa | 0 mm | - | 352 W/m² | - |
| 1787852143 | 25° C | 83% | 1018.7 hPa | 0 mm | - | 830 W/m² | - |
| 1787851834 | 25° C | 83% | 1018.8 hPa | 0 mm | - | 728 W/m² | - |
| 1787851533 | 24.44° C | 84% | 1018.8 hPa | 0 mm | - | 487 W/m² | - |
| 1787851232 | 25° C | 84% | 1018.8 hPa | 0 mm | - | 342 W/m² | - |
| 1787850927 | 25° C | 85% | 1018.8 hPa | 0 mm | - | 655 W/m² | - |
| 1787850619 | 24.44° C | 90% | 1018.9 hPa | 0 mm | - | 865 W/m² | - |
| 1787850319 | 23.33° C | 90% | 1019 hPa | 0 mm | - | 362 W/m² | - |
| 1787850009 | 22.78° C | 91% | 1019.2 hPa | 0 mm | - | 239 W/m² | - |
| 1787849702 | 22.78° C | 92% | 1019.1 hPa | 0 mm | - | 316 W/m² | - |
| 1787849397 | 22.78° C | 93% | 1019.2 hPa | 0 mm | - | 261 W/m² | - |
| 1787849090 | 22.22° C | 93% | 1019.3 hPa | 0 mm | - | 201 W/m² | - |
| 1787848784 | 22.22° C | 93% | 1019.2 hPa | 0 mm | - | 193 W/m² | - |
| 1787848478 | 21.67° C | 93% | 1019.4 hPa | 0 mm | - | 175 W/m² | - |
| 1787848174 | 21.67° C | 92% | 1019.9 hPa | 0 mm | - | 119 W/m² | - |
| 1787847873 | 22.22° C | 91% | 1019.8 hPa | 0 mm | - | 61 W/m² | - |
| 1787847569 | 22.22° C | 88% | 1019.3 hPa | 0 mm | - | 48 W/m² | - |
| 1787847264 | 22.22° C | 88% | 1019.6 hPa | 0 mm | - | 42 W/m² | - |
* Rain latest hour (hover to see other rain measurements)
** Current wind speed in m/s (hover to see current wind gust speed)